DW9210 Weather Reports


time (UTC)temp
C
wind
direction
speed
KPH
gust
KPH
rain 1hr
cm
rain 24hr
cm
rain mn
cm
humidity
%
barometer
mb
20260904172003 36 266 4.8 16.1 0.00 0.00 0.00 55 1013.9
20260904171503 35 271 6.4 16.1 0.00 0.00 0.00 55 1013.9
20260904171003 35 288 4.8 11.3 0.00 0.00 0.00 54 1013.9
20260904170524 35 291 4.8 11.3 0.00 0.00 0.00 57 1013.9
20260904170003 35 280 4.8 11.3 0.00 0.00 0.00 56 1014.0
20260904165503 35 274 3.2 9.7 0.00 0.00 0.00 58 1014.0
20260904165003 35 273 4.8 12.9 0.00 0.00 0.00 56 1014.0
20260904164503 35 273 6.4 12.9 0.00 0.00 0.00 55 1014.0
20260904164003 35 284 4.8 9.7 0.00 0.00 0.00 58 1014.1
20260904163503 35 283 4.8 9.7 0.00 0.00 0.00 61 1014.1
20260904163003 35 266 3.2 9.7 0.00 0.00 0.00 59 1014.1
20260904162503 35 262 4.8 12.9 0.00 0.00 0.00 59 1014.2
20260904162024 35 275 4.8 12.9 0.00 0.00 0.00 57 1014.1
20260904161503 35 283 4.8 11.3 0.00 0.00 0.00 61 1014.2
20260904161003 35 277 4.8 11.3 0.00 0.00 0.00 63 1014.2
20260904160503 35 275 4.8 9.7 0.00 0.00 0.00 61 1014.2
20260904160003 34 280 4.8 9.7 0.00 0.00 0.00 59 1014.2
20260904155503 35 286 4.8 9.7 0.00 0.00 0.00 62 1014.2
20260904155003 34 279 4.8 9.7 0.00 0.00 0.00 63 1014.2
20260904154503 34 265 3.2 8.0 0.00 0.00 0.00 64 1014.2
20260904154003 34 257 3.2 8.0 0.00 0.00 0.00 64 1014.2
20260904153503 34 266 4.8 12.9 0.00 0.00 0.00 60 1014.2
20260904153003 33 283 4.8 12.9 0.00 0.00 0.00 59 1014.2
20260904152503 33 283 3.2 8.0 0.00 0.00 0.00 64 1014.2
20260904152024 33 274 4.8 8.0 0.00 0.00 0.00 65 1014.1
20260904151524 33 274 4.8 8.0 0.00 0.00 0.00 61 1014.1
20260904151003 33 269 4.8 9.7 0.00 0.00 0.00 65 1014.2
20260904150503 33 255 3.2 11.3 0.00 0.00 0.00 67 1014.1
20260904150003 32 245 3.2 11.3 0.00 0.00 0.00 66 1014.1
20260904145503 32 255 3.2 8.0 0.00 0.00 0.00 66 1014.1
20260904145003 32 249 3.2 8.0 0.00 0.00 0.00 67 1014.1
20260904144503 32 244 3.2 6.4 0.00 0.00 0.00 67 1014.2
20260904144003 32 256 3.2 6.4 0.00 0.00 0.00 70 1014.2
20260904143503 32 264 3.2 8.0 0.00 0.00 0.00 73 1014.2
20260904143003 32 265 3.2 8.0 0.00 0.00 0.00 71 1014.1
20260904142524 31 264 3.2 9.7 0.00 0.00 0.00 70 1014.3
20260904142003 31 270 4.8 9.7 0.00 0.00 0.00 69 1014.2
20260904141524 31 275 3.2 8.0 0.00 0.00 0.00 71 1014.2
20260904141003 31 266 3.2 8.0 0.00 0.00 0.00 73 1014.2
20260904140524 30 260 3.2 8.0 0.00 0.00 0.00 75 1014.3
20260904140003 30 256 3.2 6.4 0.00 0.00 0.00 78 1014.3
20260904135503 30 258 3.2 6.4 0.00 0.00 0.00 76 1014.3
20260904135003 30 255 3.2 6.4 0.00 0.00 0.00 76 1014.3
20260904134503 30 248 1.6 6.4 0.00 0.00 0.00 76 1014.3
20260904134003 29 246 1.6 6.4 0.00 0.00 0.00 76 1014.3
20260904133503 29 236 3.2 6.4 0.00 0.00 0.00 78 1014.3
20260904133003 29 230 3.2 6.4 0.00 0.00 0.00 77 1014.3
20260904132503 28 238 1.6 6.4 0.00 0.00 0.00 77 1014.3
20260904132003 28 256 1.6 3.2 0.00 0.00 0.00 80 1014.4
20260904131503 28 246 0.0 3.2 0.00 0.00 0.00 81 1014.4
20260904131003 27 198 0.0 3.2 0.00 0.00 0.00 83 1014.4
20260904130503 27 203 0.0 3.2 0.00 0.00 0.00 84 1014.4
20260904130003 27 230 0.0 3.2 0.00 0.00 0.00 86 1014.4
20260904125503 26 0 0.0 0.0 0.00 0.00 0.00 87 1014.5
20260904125003 26 175 0.0 1.6 0.00 0.00 0.00 89 1014.4
20260904124503 26 175 0.0 1.6 0.00 0.00 0.00 92 1014.4
20260904124003 25 0 0.0 0.0 0.00 0.00 0.00 94 1014.4
20260904123503 25 0 0.0 0.0 0.00 0.00 0.00 94 1014.4
20260904123024 24 0 0.0 0.0 0.00 0.00 0.00 95 1014.3
20260904122503 23 0 0.0 0.0 0.00 0.00 0.00 96 1014.1
20260904122003 23 0 0.0 0.0 0.00 0.00 0.00 96 1014.2
20260904121503 23 0 0.0 0.0 0.00 0.00 0.00 97 1014.1
20260904121003 23 0 0.0 0.0 0.00 0.00 0.00 97 1014.2
20260904120503 22 0 0.0 0.0 0.00 0.00 0.00 97 1014.1
20260904120003 22 0 0.0 0.0 0.00 0.00 0.00 97 1014.0
20260904115503 22 0 0.0 0.0 0.00 0.00 0.00 97 1014.0
20260904115003 22 0 0.0 0.0 0.00 0.00 0.00 97 1013.9
20260904114503 21 0 0.0 0.0 0.00 0.00 0.00 97 1013.9
20260904114003 21 0 0.0 0.0 0.00 0.00 0.00 97 1013.9
20260904113503 21 0 0.0 0.0 0.00 0.00 0.00 97 1013.8
20260904113003 21 0 0.0 0.0 0.00 0.00 0.00 97 1013.8
20260904112503 21 0 0.0 0.0 0.00 0.00 0.00 97 1013.8
20260904112003 21 0 0.0 0.0 0.00 0.00 0.00 97 1013.7
20260904111503 21 0 0.0 0.0 0.00 0.00 0.00 96 1013.7
20260904111003 21 0 0.0 0.0 0.00 0.00 0.00 96 1013.7
20260904110503 21 0 0.0 0.0 0.00 0.00 0.00 97 1013.6
20260904110003 21 0 0.0 0.0 0.00 0.00 0.00 96 1013.5
20260904105503 21 0 0.0 0.0 0.00 0.00 0.00 97 1013.5
20260904105003 21 0 0.0 0.0 0.00 0.00 0.00 97 1013.5
20260904104524 21 0 0.0 0.0 0.00 0.00 0.00 97 1013.5
20260904104003 21 0 0.0 0.0 0.00 0.00 0.00 97 1013.4
20260904103503 21 0 0.0 0.0 0.00 0.00 0.00 97 1013.4
20260904103003 21 0 0.0 0.0 0.00 0.00 0.00 97 1013.4
20260904102503 21 0 0.0 0.0 0.00 0.00 0.00 97 1013.3
20260904102003 21 0 0.0 0.0 0.00 0.00 0.00 97 1013.4
20260904101503 21 0 0.0 0.0 0.00 0.00 0.00 96 1013.4
20260904101003 21 0 0.0 0.0 0.00 0.00 0.00 96 1013.3
20260904100503 21 0 0.0 0.0 0.00 0.00 0.00 96 1013.3
20260904100003 21 0 0.0 0.0 0.00 0.00 0.00 96 1013.2
20260904095503 21 0 0.0 0.0 0.00 0.00 0.00 96 1013.2
20260904095003 22 0 0.0 0.0 0.00 0.00 0.00 96 1013.2
20260904094503 22 0 0.0 0.0 0.00 0.00 0.00 97 1013.2
20260904094003 22 0 0.0 0.0 0.00 0.00 0.00 97 1013.2
20260904093503 22 0 0.0 0.0 0.00 0.00 0.00 96 1013.1
20260904093003 22 0 0.0 0.0 0.00 0.00 0.00 96 1013.2
20260904092503 21 0 0.0 0.0 0.00 0.00 0.00 96 1013.2
20260904092003 21 0 0.0 0.0 0.00 0.00 0.00 96 1013.2
20260904091524 21 0 0.0 0.0 0.00 0.00 0.00 96 1013.2
20260904091003 21 0 0.0 0.0 0.00 0.00 0.00 96 1013.2
20260904090503 22 0 0.0 0.0 0.00 0.00 0.00 96 1013.2
20260904090003 22 0 0.0 0.0 0.00 0.00 0.00 96 1013.2
20260904085503 22 0 0.0 0.0 0.00 0.00 0.00 96 1013.3
20260904085003 22 0 0.0 0.0 0.00 0.00 0.00 96 1013.2
20260904084503 22 0 0.0 0.0 0.00 0.00 0.00 96 1013.2
20260904084003 22 0 0.0 0.0 0.00 0.00 0.00 96 1013.1
20260904083503 22 0 0.0 0.0 0.00 0.00 0.00 96 1013.1
20260904083003 22 0 0.0 0.0 0.00 0.00 0.00 96 1013.1
20260904082503 22 0 0.0 0.0 0.00 0.00 0.00 96 1013.2
20260904082003 22 0 0.0 0.0 0.00 0.00 0.00 96 1013.1
20260904081503 22 0 0.0 0.0 0.00 0.00 0.00 95 1013.1
20260904081003 22 0 0.0 0.0 0.00 0.00 0.00 96 1013.1
20260904080503 22 0 0.0 0.0 0.00 0.00 0.00 96 1013.1
20260904080003 22 0 0.0 0.0 0.00 0.00 0.00 96 1013.0
20260904075503 22 0 0.0 0.0 0.00 0.00 0.00 96 1013.1
20260904075003 22 0 0.0 0.0 0.00 0.00 0.00 96 1013.0
20260904074524 22 0 0.0 0.0 0.00 0.00 0.00 96 1013.0
20260904074003 22 0 0.0 0.0 0.00 0.00 0.00 96 1012.9
20260904073503 22 0 0.0 0.0 0.00 0.00 0.00 95 1013.0
20260904073003 22 0 0.0 0.0 0.00 0.00 0.00 95 1012.9
20260904072503 22 0 0.0 0.0 0.00 0.00 0.00 95 1013.0
20260904072003 22 0 0.0 0.0 0.00 0.00 0.00 95 1013.0
20260904071524 22 0 0.0 0.0 0.00 0.00 0.00 96 1013.0
20260904071003 22 0 0.0 0.0 0.00 0.00 0.00 96 1013.0
20260904070503 22 0 0.0 0.0 0.00 0.00 0.00 96 1013.2
20260904070024 22 0 0.0 0.0 0.00 0.00 0.00 95 1013.2
20260904065503 22 0 0.0 0.0 0.00 0.00 0.00 95 1013.2
20260904065003 22 0 0.0 0.0 0.00 0.00 0.00 95 1013.2
20260904064503 22 0 0.0 0.0 0.00 0.00 0.00 95 1013.3
20260904064003 22 0 0.0 0.0 0.00 0.00 0.00 95 1013.3
20260904063503 22 0 0.0 0.0 0.00 0.00 0.00 95 1013.3
20260904063003 22 0 0.0 0.0 0.00 0.00 0.00 95 1013.4
20260904062524 23 0 0.0 0.0 0.00 0.00 0.00 95 1013.4
20260904062003 23 0 0.0 0.0 0.00 0.00 0.00 95 1013.4
20260904061503 23 0 0.0 0.0 0.00 0.00 0.00 95 1013.4
20260904061003 22 0 0.0 0.0 0.00 0.00 0.00 95 1013.5
20260904060503 22 0 0.0 0.0 0.00 0.00 0.00 95 1013.6
20260904060003 23 0 0.0 0.0 0.00 0.00 0.00 95 1013.6
20260904055503 23 0 0.0 0.0 0.00 0.00 0.00 95 1013.6
20260904055003 23 0 0.0 0.0 0.00 0.00 0.00 94 1013.5
20260904054503 23 0 0.0 0.0 0.00 0.00 0.00 95 1013.5
20260904054003 23 0 0.0 0.0 0.00 0.00 0.00 95 1013.6
20260904053503 23 0 0.0 0.0 0.00 0.00 0.00 95 1013.6
20260904053003 23 0 0.0 0.0 0.00 0.00 0.00 94 1013.7
20260904052524 23 0 0.0 0.0 0.00 0.00 0.00 94 1013.8
20260904052003 23 0 0.0 0.0 0.00 0.00 0.00 94 1013.7
20260904051503 23 0 0.0 0.0 0.00 0.00 0.00 94 1013.6
20260904051003 23 0 0.0 0.0 0.00 0.00 0.00 94 1013.6
20260904050524 23 0 0.0 0.0 0.00 0.00 0.00 94 1013.6
20260904050003 23 0 0.0 0.0 0.00 0.00 0.00 94 1013.6
20260904045503 23 0 0.0 0.0 0.00 0.00 0.00 94 1013.7
20260904045003 23 0 0.0 0.0 0.00 0.00 0.00 94 1013.7
20260904044503 23 0 0.0 0.0 0.00 0.00 0.00 94 1013.7
20260904044003 23 0 0.0 0.0 0.00 0.00 0.00 94 1013.6
20260904043503 23 0 0.0 0.0 0.00 0.00 0.00 94 1013.6
20260904043003 23 0 0.0 0.0 0.00 0.00 0.00 94 1013.6
20260904042503 23 0 0.0 0.0 0.00 0.00 0.00 94 1013.6
20260904042003 23 0 0.0 0.0 0.00 0.00 0.00 94 1013.6
20260904041503 23 0 0.0 0.0 0.00 0.00 0.00 94 1013.6
20260904041003 23 0 0.0 0.0 0.00 0.00 0.00 94 1013.5
20260904040503 23 0 0.0 0.0 0.00 0.00 0.00 93 1013.5
20260904040003 23 0 0.0 0.0 0.00 0.00 0.00 93 1013.5
20260904035503 23 0 0.0 0.0 0.00 0.00 0.00 94 1013.5
20260904035003 23 0 0.0 0.0 0.00 0.00 0.00 93 1013.5
20260904034503 24 0 0.0 0.0 0.00 0.00 0.00 94 1013.5
20260904034003 24 0 0.0 0.0 0.00 0.00 0.00 94 1013.7
20260904033503 23 0 0.0 0.0 0.00 0.00 0.00 93 1013.7
20260904033003 23 0 0.0 0.0 0.00 0.00 0.00 92 1013.8
20260904032503 24 0 0.0 0.0 0.00 0.00 0.00 93 1013.8
20260904032003 24 0 0.0 0.0 0.00 0.00 0.00 93 1013.8
20260904031503 24 0 0.0 0.0 0.00 0.00 0.00 93 1013.9
20260904031003 24 0 0.0 0.0 0.00 0.00 0.00 93 1014.0
20260904030503 24 0 0.0 0.0 0.00 0.00 0.00 93 1014.0
20260904030003 24 0 0.0 0.0 0.00 0.00 0.00 92 1014.1
20260904025503 24 0 0.0 0.0 0.00 0.00 0.00 92 1014.2
20260904025003 24 0 0.0 0.0 0.00 0.00 0.00 92 1014.0
20260904024524 25 0 0.0 0.0 0.00 0.00 0.00 92 1014.1
20260904024003 25 0 0.0 0.0 0.00 0.00 0.00 92 1014.1
20260904023524 25 0 0.0 0.0 0.00 0.00 0.00 92 1014.0
20260904023003 25 0 0.0 0.0 0.00 0.00 0.00 91 1014.1
20260904022524 25 0 0.0 0.0 0.00 0.00 0.00 91 1014.1
20260904022003 25 0 0.0 0.0 0.00 0.00 0.00 91 1014.1
20260904021503 25 0 0.0 0.0 0.00 0.00 0.00 91 1014.2
20260904021003 25 0 0.0 0.0 0.00 0.00 0.00 91 1014.2
20260904020503 25 0 0.0 0.0 0.00 0.00 0.00 90 1014.1
20260904020003 25 0 0.0 0.0 0.00 0.00 0.00 90 1014.1
20260904015503 25 0 0.0 0.0 0.00 0.00 0.00 90 1014.1
20260904015024 25 0 0.0 0.0 0.00 0.00 0.00 89 1014.2
20260904014524 25 0 0.0 0.0 0.00 0.00 0.00 89 1014.1
20260904014003 26 0 0.0 0.0 0.00 0.00 0.00 89 1014.0
20260904013503 26 0 0.0 0.0 0.00 0.00 0.00 89 1013.9
20260904013003 26 0 0.0 0.0 0.00 0.00 0.00 88 1013.9
20260904012503 26 0 0.0 0.0 0.00 0.00 0.00 87 1013.9
20260904012003 26 0 0.0 0.0 0.00 0.00 0.00 86 1013.8
20260904011503 26 0 0.0 0.0 0.00 0.00 0.00 86 1013.7
20260904011003 26 0 0.0 0.0 0.00 0.00 0.00 86 1013.6
20260904010503 26 0 0.0 0.0 0.00 0.00 0.00 86 1013.7
20260904010024 27 0 0.0 0.0 0.00 0.00 0.00 85 1013.6
20260904005503 27 0 0.0 0.0 0.00 0.00 0.00 84 1013.6
20260904005003 27 0 0.0 0.0 0.00 0.00 0.00 83 1013.4
20260904004503 27 0 0.0 0.0 0.00 0.00 0.00 82 1013.5
20260904004003 27 0 0.0 0.0 0.00 0.00 0.00 81 1013.4
20260904003524 28 0 0.0 0.0 0.00 0.00 0.00 79 1013.4
20260904003003 28 0 0.0 0.0 0.00 0.00 0.00 77 1013.3
20260904002503 28 0 0.0 0.0 0.00 0.00 0.00 76 1013.1
20260904002024 28 0 0.0 0.0 0.00 0.00 0.00 75 1013.1
20260904001503 29 263 0.0 1.6 0.00 0.00 0.00 73 1013.0
20260904001003 30 263 0.0 1.6 0.00 0.00 0.00 71 1012.9
20260904000503 30 263 0.0 1.6 0.00 0.00 0.00 71 1012.9
20260904000003 31 263 0.0 1.6 0.00 0.00 0.00 71 1012.9
20260903235503 31 263 0.0 1.6 0.00 0.00 0.00 70 1012.8
20260903235003 31 263 0.0 3.2 0.00 0.00 0.00 68 1012.8
20260903234503 31 253 0.0 3.2 0.00 0.00 0.00 64 1012.9
20260903234003 32 235 0.0 3.2 0.00 0.00 0.00 64 1012.8
20260903233503 32 238 0.0 3.2 0.00 0.00 0.00 61 1012.8
20260903233003 32 241 1.6 3.2 0.00 0.00 0.00 60 1012.8
20260903232503 33 245 1.6 4.8 0.00 0.00 0.00 58 1012.7
20260903232024 33 243 3.2 9.7 0.00 0.00 0.00 56 1012.7
20260903231503 33 245 3.2 9.7 0.00 0.00 0.00 56 1012.7
20260903231003 33 255 3.2 4.8 0.00 0.00 0.00 54 1012.7
20260903230503 34 253 3.2 8.0 0.00 0.00 0.00 54 1012.6
20260903230003 34 251 3.2 8.0 0.00 0.00 0.00 53 1012.6
20260903225503 34 256 3.2 8.0 0.00 0.00 0.00 52 1012.6
20260903225003 35 256 3.2 8.0 0.00 0.00 0.00 52 1012.5
20260903224503 35 260 3.2 8.0 0.00 0.00 0.00 53 1012.6
20260903224003 35 271 3.2 8.0 0.00 0.00 0.00 55 1012.6
20260903223503 35 255 4.8 12.9 0.00 0.00 0.00 56 1012.6
20260903223024 35 241 4.8 12.9 0.00 0.00 0.00 53 1012.6
20260903222503 35 245 4.8 12.9 0.00 0.00 0.00 51 1012.6
20260903222024 35 261 4.8 12.9 0.00 0.00 0.00 53 1012.5
20260903221503 35 253 4.8 11.3 0.00 0.00 0.00 54 1012.5
20260903221003 35 242 4.8 11.3 0.00 0.00 0.00 49 1012.5
20260903220524 36 248 3.2 9.7 0.00 0.00 0.00 50 1012.5
20260903220003 36 254 4.8 12.9 0.00 0.00 0.00 51 1012.5
20260903215503 36 255 4.8 12.9 0.00 0.00 0.00 50 1012.5
20260903215003 36 264 4.8 11.3 0.00 0.00 0.00 51 1012.5
20260903214503 36 257 4.8 11.3 0.00 0.00 0.00 52 1012.4
20260903214003 36 241 3.2 11.3 0.00 0.00 0.00 52 1012.4
20260903213503 36 252 1.6 8.0 0.00 0.00 0.00 51 1012.4
20260903213024 36 257 3.2 8.0 0.00 0.00 0.00 53 1012.5
20260903212503 36 249 1.6 8.0 0.00 0.00 0.00 55 1012.6
20260903212003 36 241 3.2 9.7 0.00 0.00 0.00 50 1012.6
20260903211503 36 241 6.4 16.1 0.00 0.00 0.00 49 1012.6
20260903211003 36 249 6.4 16.1 0.00 0.00 0.00 49 1012.7
20260903210503 36 272 4.8 11.3 0.00 0.00 0.00 50 1012.7
20260903210024 36 273 4.8 9.7 0.00 0.00 0.00 54 1012.8
20260903205524 36 258 3.2 8.0 0.00 0.00 0.00 51 1012.8
20260903205003 36 258 3.2 9.7 0.00 0.00 0.00 51 1012.9
20260903204524 36 261 4.8 11.3 0.00 0.00 0.00 52 1013.0
20260903204024 36 264 4.8 12.9 0.00 0.00 0.00 53 1013.1
20260903203503 36 274 4.8 12.9 0.00 0.00 0.00 52 1013.1
20260903203003 35 285 4.8 9.7 0.00 0.00 0.00 54 1013.1
20260903202503 35 284 3.2 9.7 0.00 0.00 0.00 55 1013.2
20260903202003 35 251 3.2 9.7 0.00 0.00 0.00 53 1013.2
20260903201503 35 247 4.8 11.3 0.00 0.00 0.00 54 1013.3
20260903201003 35 273 3.2 11.3 0.00 0.00 0.00 54 1013.3
20260903200503 35 285 3.2 6.4 0.00 0.00 0.00 57 1013.4
20260903200003 35 287 3.2 6.4 0.00 0.00 0.00 57 1013.5
20260903195524 35 277 4.8 9.7 0.00 0.00 0.00 56 1013.5
20260903195003 35 277 4.8 9.7 0.00 0.00 0.00 55 1013.6
20260903194503 35 287 3.2 9.7 0.00 0.00 0.00 58 1013.6
20260903194003 35 275 3.2 14.5 0.00 0.00 0.00 54 1013.7
20260903193524 35 274 6.4 14.5 0.00 0.00 0.00 55 1013.7
20260903193003 35 270 6.4 12.9 0.00 0.00 0.00 55 1013.7
20260903192503 35 274 4.8 12.9 0.00 0.00 0.00 53 1013.7
20260903192003 35 295 4.8 9.7 0.00 0.00 0.00 59 1013.8
20260903191503 35 293 4.8 9.7 0.00 0.00 0.00 55 1013.9
20260903191003 35 285 4.8 11.3 0.00 0.00 0.00 55 1014.0
20260903190503 35 290 4.8 11.3 0.00 0.00 0.00 57 1014.1
20260903190003 35 291 3.2 8.0 0.00 0.00 0.00 59 1014.0
20260903185503 35 272 4.8 14.5 0.00 0.00 0.00 57 1014.1
20260903185003 35 267 6.4 17.7 0.00 0.00 0.00 51 1014.1
20260903184503 36 270 4.8 17.7 0.00 0.00 0.00 57 1014.2
20260903184003 36 251 4.8 9.7 0.00 0.00 0.00 54 1014.2
20260903183503 35 256 6.4 16.1 0.00 0.00 0.00 52 1014.2
20260903183003 35 268 4.8 16.1 0.00 0.00 0.00 51 1014.3
20260903182524 35 290 3.2 12.9 0.00 0.00 0.00 56 1014.3
20260903182024 35 278 4.8 12.9 0.00 0.00 0.00 56 1014.3
20260903181503 35 253 4.8 12.9 0.00 0.00 0.00 51 1014.4
20260903181003 35 247 4.8 12.9 0.00 0.00 0.00 51 1014.4
20260903180503 35 262 6.4 12.9 0.00 0.00 0.00 52 1014.5
20260903180024 35 261 4.8 12.9 0.00 0.00 0.00 53 1014.5
20260903175503 35 257 4.8 14.5 0.00 0.00 0.00 56 1014.6
20260903175003 35 251 6.4 16.1 0.00 0.00 0.00 51 1014.6
20260903174524 35 245 3.2 16.1 0.00 0.00 0.00 52 1014.7
20260903174003 35 268 3.2 8.0 0.00 0.00 0.00 54 1014.7
20260903173503 35 288 3.2 8.0 0.00 0.00 0.00 52 1014.8
20260903173003 35 282 4.8 12.9 0.00 0.00 0.00 55 1014.8
20260903172503 35 272 6.4 12.9 0.00 0.00 0.00 51 1014.8